This is the latest recevied weather packets stored in our database for station/object K0CVS. If no packets are shown the sender has not sent any weather packets the latest 10 day(s).
| Time | Temp. | Humidity | Pressure | Rain* | Wind** | Luminosity | Snow |
|---|---|---|---|---|---|---|---|
| 1777554135 | 10.56° C | 74% | 1019.3 hPa | 0 mm | - | 106 W/m² | - |
| 1777553833 | 10° C | 77% | 1019.3 hPa | 0 mm | - | 72 W/m² | - |
| 1777553529 | 9.44° C | 80% | 1019.2 hPa | 0 mm | - | 81 W/m² | - |
| 1777553224 | 8.89° C | 83% | 1019.4 hPa | 0 mm | - | 73 W/m² | - |
| 1777552921 | 8.33° C | 85% | 1019.3 hPa | 0 mm | - | 43 W/m² | - |
| 1777552615 | 7.78° C | 87% | 1019.3 hPa | 0 mm | - | 21 W/m² | - |
| 1777552312 | 7.78° C | 88% | 1019.4 hPa | 0 mm | - | 21 W/m² | - |
| 1777552009 | 7.22° C | 88% | 1019.2 hPa | 0 mm | - | 19 W/m² | - |
| 1777551706 | 7.22° C | 89% | 1019.2 hPa | 0 mm | - | 18 W/m² | - |
| 1777551404 | 7.22° C | 89% | 1018.9 hPa | 0 mm | - | 17 W/m² | - |
| 1777551100 | 6.67° C | 89% | 1019 hPa | 0 mm | - | 14 W/m² | - |
| 1777550797 | 6.67° C | 89% | 1019 hPa | 0 mm | - | 12 W/m² | - |
| 1777550493 | 6.67° C | 89% | 1019 hPa | 0 mm | - | 11 W/m² | - |
| 1777550189 | 6.67° C | 89% | 1019.1 hPa | 0 mm | - | 9 W/m² | - |
| 1777549886 | 6.67° C | 89% | 1018.9 hPa | 0 mm | - | 8 W/m² | - |
| 1777549582 | 6.67° C | 88% | 1018.9 hPa | 0 mm | - | 7 W/m² | - |
| 1777549278 | 6.11° C | 88% | 1018.8 hPa | 0 mm | - | 6 W/m² | - |
| 1777548976 | 6.11° C | 88% | 1019 hPa | 0 mm | - | 5 W/m² | - |
| 1777548672 | 6.11° C | 88% | 1018.7 hPa | 0 mm | - | 3 W/m² | - |
| 1777548369 | 6.11° C | 88% | 1018.5 hPa | 0 mm | - | 2 W/m² | - |
| 1777548067 | 6.11° C | 88% | 1018.7 hPa | 0 mm | - | 1 W/m² | - |
| 1777547762 | 6.11° C | 88% | 1018.7 hPa | 0 mm | - | 1 W/m² | - |
| 1777547458 | 6.11° C | 88% | 1018.9 hPa | 0 mm | - | 0 W/m² | - |
| 1777547156 | 6.11° C | 88% | 1018.8 hPa | 0 mm | - | 0 W/m² | - |
| 1777546853 | 6.11° C | 87% | 1019 hPa | 0 mm | - | 0 W/m² | - |
* Rain latest hour (hover to see other rain measurements)
** Current wind speed in m/s (hover to see current wind gust speed)